EZY279 EGPH-EGHH

Flight info

Callsign EZY279
Flight time N/A
Altitude 24000
Route GOSAM P600 FENIK/N0346F230 L612 CALDA DCT KEPAD L151 PEPUL Y322 BUGUP/N0352F240
Aircraft A20N/M-SDE2E3FGHIRWXY/LB1

Departure

Time 2026-05-05 19:01
Airport Edinburgh Airport (EGPH)

Arrival

Time N/A
Airport Bournemouth Airport (EGHH)
Time Latitude Longitude Altitude Speed Heading
2026-05-05 18:38 55.94940 -3.36355 107 ft 0 kts 148°
2026-05-05 18:50 55.94943 -3.36359 107 ft 2 kts 148°
2026-05-05 18:51 55.94957 -3.36375 106 ft 2 kts 148°
2026-05-05 18:51 55.94971 -3.36390 104 ft 2 kts 149°
2026-05-05 18:51 55.94985 -3.36404 105 ft 2 kts 153°
2026-05-05 18:51 55.95001 -3.36416 107 ft 2 kts 181°
2026-05-05 18:52 55.95011 -3.36407 107 ft 1 kts 238°
2026-05-05 18:52 55.95012 -3.36404 107 ft 0 kts 238°
2026-05-05 18:56 55.95008 -3.36416 106 ft 3 kts 238°
2026-05-05 18:56 55.94981 -3.36495 106 ft 12 kts 238°
2026-05-05 18:56 55.94920 -3.36670 105 ft 20 kts 240°
2026-05-05 18:56 55.94922 -3.36873 104 ft 6 kts 288°
2026-05-05 18:57 55.94900 -3.36968 104 ft 12 kts 240°
2026-05-05 18:57 55.94841 -3.37134 104 ft 20 kts 239°
2026-05-05 18:57 55.94757 -3.37386 108 ft 25 kts 239°
2026-05-05 18:57 55.94662 -3.37662 112 ft 25 kts 238°
2026-05-05 18:58 55.94578 -3.37917 111 ft 24 kts 239°
2026-05-05 18:58 55.94483 -3.38192 110 ft 28 kts 238°
2026-05-05 18:58 55.94404 -3.38420 111 ft 8 kts 240°
2026-05-05 18:58 55.94371 -3.38523 114 ft 11 kts 240°
2026-05-05 18:59 55.94319 -3.38685 115 ft 21 kts 240°
2026-05-05 18:59 55.94312 -3.38879 120 ft 0 kts 323°
2026-05-05 18:59 55.94319 -3.38889 120 ft 4 kts 322°
2026-05-05 18:59 55.94327 -3.38900 118 ft 3 kts 322°
2026-05-05 19:00 55.94331 -3.38905 120 ft 0 kts 322°
2026-05-05 19:00 55.94334 -3.38910 119 ft 4 kts 322°
2026-05-05 19:00 55.94396 -3.38959 114 ft 14 kts
2026-05-05 19:00 55.94480 -3.38780 112 ft 39 kts 58°
2026-05-05 19:01 55.94744 -3.37999 117 ft 106 kts 58°
2026-05-05 19:01 55.95216 -3.36609 193 ft 149 kts 60°
2026-05-05 19:01 55.95842 -3.34965 577 ft 168 kts 58°
2026-05-05 19:01 55.96516 -3.33280 1415 ft 163 kts 49°
2026-05-05 19:02 55.97370 -3.31969 2194 ft 168 kts 40°
2026-05-05 19:02 55.98369 -3.30661 2648 ft 188 kts 39°
2026-05-05 19:02 55.99458 -3.29161 3184 ft 207 kts 41°
2026-05-05 19:02 56.00796 -3.27931 3812 ft 231 kts 13°
2026-05-05 19:03 56.02458 -3.28124 4570 ft 251 kts 341°
2026-05-05 19:03 56.03976 -3.29814 5205 ft 264 kts 314°
2026-05-05 19:03 56.04813 -3.32676 6569 ft 257 kts 283°
2026-05-05 19:03 56.04752 -3.35752 8161 ft 244 kts 255°
2026-05-05 19:04 56.03966 -3.38349 9706 ft 232 kts 238°
2026-05-05 19:04 56.03069 -3.40611 11076 ft 214 kts 241°
2026-05-05 19:04 56.02340 -3.42879 12136 ft 210 kts 248°
2026-05-05 19:04 56.01777 -3.45293 12998 ft 211 kts 254°
2026-05-05 19:05 56.01334 -3.47804 13866 ft 213 kts 257°
2026-05-05 19:05 56.00949 -3.50372 14634 ft 215 kts 258°
2026-05-05 19:05 56.00581 -3.52980 15396 ft 218 kts 258°
2026-05-05 19:05 56.00213 -3.55617 16150 ft 220 kts 258°
2026-05-05 19:06 55.99836 -3.58287 16906 ft 223 kts 258°
2026-05-05 19:06 55.99449 -3.60985 17656 ft 226 kts 258°
2026-05-05 19:06 55.99050 -3.63717 18394 ft 229 kts 257°
2026-05-05 19:06 55.98645 -3.66473 19027 ft 231 kts 257°
2026-05-05 19:07 55.98235 -3.69257 19674 ft 233 kts 257°
2026-05-05 19:07 55.97821 -3.72062 20306 ft 235 kts 257°
2026-05-05 19:07 55.97401 -3.74899 20942 ft 237 kts 257°
2026-05-05 19:07 55.96978 -3.77760 21561 ft 239 kts 257°
2026-05-05 19:08 55.96551 -3.80647 22169 ft 242 kts 257°
2026-05-05 19:08 55.96118 -3.83563 22792 ft 244 kts 257°
2026-05-05 19:08 55.95682 -3.86499 23380 ft 246 kts 256°
2026-05-05 19:08 55.95238 -3.89486 23786 ft 256 kts 256°
2026-05-05 19:09 55.94765 -3.92671 23904 ft 275 kts 256°
2026-05-05 19:09 55.94254 -3.96093 24003 ft 295 kts 256°
2026-05-05 19:09 55.93546 -3.99656 24096 ft 316 kts 245°
2026-05-05 19:09 55.92262 -4.03019 24104 ft 342 kts 231°
2026-05-05 19:10 55.90476 -4.06032 24098 ft 366 kts 222°
2026-05-05 19:10 55.88373 -4.08829 24096 ft 388 kts 218°
2026-05-05 19:10 55.86106 -4.11556 24093 ft 396 kts 216°
2026-05-05 19:10 55.83803 -4.14250 24099 ft 395 kts 216°
2026-05-05 19:11 55.81509 -4.16941 24107 ft 395 kts 216°
2026-05-05 19:11 55.79221 -4.19652 24096 ft 395 kts 217°
2026-05-05 19:11 55.76880 -4.22211 24105 ft 398 kts 208°
2026-05-05 19:11 55.74279 -4.23971 24106 ft 401 kts 201°
2026-05-05 19:12 55.71540 -4.25009 24098 ft 406 kts 187°
2026-05-05 19:12 55.68707 -4.24747 24095 ft 412 kts 172°
2026-05-05 19:12 55.65982 -4.23324 24090 ft 416 kts 161°
2026-05-05 19:12 55.63304 -4.21173 24091 ft 418 kts 155°
2026-05-05 19:13 55.60772 -4.18784 24083 ft 419 kts 153°
2026-05-05 19:13 55.58230 -4.16262 24086 ft 419 kts 153°
2026-05-05 19:13 55.55699 -4.13735 24084 ft 419 kts 153°
2026-05-05 19:13 55.53157 -4.11217 24076 ft 419 kts 153°
2026-05-05 19:14 55.50629 -4.08735 24080 ft 418 kts 153°
2026-05-05 19:14 55.48065 -4.06234 24086 ft 418 kts 154°
2026-05-05 19:14 55.45510 -4.03750 24072 ft 419 kts 154°
2026-05-05 19:14 55.42957 -4.01275 24082 ft 419 kts 154°
2026-05-05 19:15 55.40401 -3.98800 24081 ft 419 kts 154°
2026-05-05 19:15 55.37850 -3.96333 24081 ft 419 kts 154°
2026-05-05 19:15 55.35290 -3.93861 24079 ft 420 kts 154°
2026-05-05 19:15 55.32729 -3.91392 24081 ft 419 kts 154°
2026-05-05 19:16 55.30171 -3.88929 24077 ft 420 kts 154°
2026-05-05 19:16 55.27613 -3.86470 24077 ft 419 kts 154°
2026-05-05 19:16 55.25052 -3.84011 24077 ft 419 kts 154°
2026-05-05 19:16 55.22491 -3.81556 24078 ft 419 kts 154°
2026-05-05 19:17 55.19934 -3.79109 24067 ft 419 kts 154°
2026-05-05 19:17 55.18240 -3.77489 24074 ft 419 kts 154°
2026-05-05 19:17 55.15681 -3.75044 24076 ft 419 kts 154°
2026-05-05 19:17 55.13121 -3.72601 24078 ft 419 kts 154°
2026-05-05 19:18 55.10561 -3.70162 24072 ft 419 kts 154°
2026-05-05 19:18 55.07997 -3.67724 24073 ft 419 kts 154°
2026-05-05 19:18 55.05435 -3.65291 24073 ft 419 kts 154°
2026-05-05 19:18 55.02875 -3.62864 24072 ft 419 kts 154°
2026-05-05 19:19 55.00313 -3.60438 24064 ft 419 kts 154°
2026-05-05 19:19 54.97749 -3.58014 24063 ft 419 kts 154°
2026-05-05 19:19 54.95187 -3.55596 24048 ft 419 kts 154°
2026-05-05 19:19 54.92611 -3.53170 24064 ft 421 kts 154°
2026-05-05 19:20 54.90046 -3.50759 24061 ft 419 kts 154°
2026-05-05 19:20 54.87474 -3.48345 24061 ft 419 kts 154°
2026-05-05 19:20 54.84911 -3.45942 24061 ft 419 kts 154°
2026-05-05 19:20 54.82343 -3.43536 24061 ft 421 kts 154°
2026-05-05 19:21 54.79767 -3.41128 24053 ft 420 kts 154°
2026-05-05 19:21 54.77196 -3.38729 24053 ft 419 kts 154°
2026-05-05 19:21 54.74632 -3.36339 24053 ft 419 kts 154°
2026-05-05 19:21 54.72054 -3.33978 24052 ft 419 kts 157°
2026-05-05 19:22 54.69392 -3.31941 24048 ft 418 kts 159°
2026-05-05 19:22 54.66735 -3.29953 24047 ft 416 kts 159°
2026-05-05 19:22 54.64072 -3.27953 24049 ft 417 kts 159°
2026-05-05 19:22 54.61410 -3.25952 24051 ft 417 kts 159°
2026-05-05 19:23 54.58745 -3.23959 24041 ft 417 kts 159°
2026-05-05 19:23 54.56083 -3.21974 24053 ft 417 kts 159°
2026-05-05 19:23 54.53428 -3.19992 24050 ft 416 kts 159°
2026-05-05 19:23 54.50763 -3.18008 24053 ft 417 kts 159°
2026-05-05 19:24 54.48104 -3.16029 24047 ft 416 kts 159°
2026-05-05 19:24 54.45449 -3.14056 24040 ft 416 kts 159°
2026-05-05 19:24 54.42799 -3.12086 24052 ft 415 kts 159°
2026-05-05 19:24 54.40146 -3.10120 24044 ft 415 kts 160°
2026-05-05 19:25 54.37497 -3.08163 24045 ft 415 kts 160°
2026-05-05 19:25 54.34838 -3.06201 24046 ft 415 kts 160°
2026-05-05 19:25 54.32219 -3.04266 24047 ft 415 kts 160°
2026-05-05 19:25 54.29533 -3.02283 24045 ft 415 kts 160°
2026-05-05 19:26 54.26876 -3.00326 24046 ft 415 kts 160°
2026-05-05 19:26 54.24227 -2.98378 24046 ft 415 kts 160°
2026-05-05 19:26 54.21572 -2.96428 24049 ft 415 kts 160°
2026-05-05 19:26 54.18924 -2.94485 24045 ft 413 kts 160°
2026-05-05 19:27 54.16316 -2.92574 24049 ft 413 kts 160°
2026-05-05 19:27 54.13640 -2.90617 24048 ft 413 kts 160°
2026-05-05 19:27 54.11034 -2.88716 24040 ft 413 kts 160°
2026-05-05 19:27 54.08390 -2.86788 24040 ft 413 kts 160°
2026-05-05 19:28 54.05746 -2.84864 24044 ft 413 kts 160°
2026-05-05 19:28 54.03102 -2.82942 24044 ft 413 kts 160°
2026-05-05 19:28 54.00454 -2.81020 24037 ft 413 kts 160°
2026-05-05 19:28 53.97809 -2.79102 24037 ft 413 kts 160°
2026-05-05 19:29 53.95162 -2.77184 24029 ft 414 kts 160°
2026-05-05 19:29 53.92515 -2.75269 24037 ft 414 kts 160°
2026-05-05 19:29 53.89865 -2.73354 24037 ft 414 kts 160°
2026-05-05 19:29 53.87219 -2.71446 24037 ft 414 kts 160°
2026-05-05 19:30 53.84571 -2.69539 24037 ft 414 kts 160°
2026-05-05 19:30 53.81923 -2.67636 24040 ft 414 kts 160°
2026-05-05 19:30 53.79262 -2.65790 24037 ft 412 kts 163°
2026-05-05 19:30 53.76515 -2.64442 24037 ft 409 kts 171°
2026-05-05 19:31 53.73713 -2.63696 24037 ft 407 kts 178°
2026-05-05 19:31 53.70899 -2.63231 24016 ft 407 kts 177°
2026-05-05 19:31 53.68073 -2.62758 24027 ft 409 kts 177°
2026-05-05 19:31 53.65246 -2.62274 24029 ft 408 kts 177°
2026-05-05 19:32 53.62420 -2.61784 24031 ft 408 kts 177°
2026-05-05 19:32 53.59592 -2.61293 24029 ft 408 kts 177°
2026-05-05 19:32 53.56765 -2.60801 24029 ft 408 kts 177°
2026-05-05 19:32 53.53944 -2.60309 24028 ft 408 kts 177°
2026-05-05 19:33 53.51118 -2.59817 24027 ft 408 kts 176°
2026-05-05 19:33 53.48293 -2.59315 24029 ft 408 kts 177°
2026-05-05 19:33 53.45465 -2.58829 24028 ft 408 kts 177°
2026-05-05 19:33 53.42641 -2.58352 24040 ft 408 kts 177°
2026-05-05 19:34 53.39848 -2.57880 24041 ft 408 kts 177°
2026-05-05 19:34 53.36983 -2.57385 24040 ft 408 kts 177°
2026-05-05 19:34 53.34197 -2.56903 24040 ft 408 kts 177°